Regional Weather Roundup
Issued by NWS

Home | Current Version | Previous Version | Graphics & Text | Print | Product List | Glossary Off
Versions: 1 2 3 4 5 6 7 8 9 10 11 12 13 14 15 16 17 18 19 20 21 22 23 24 25 26 27 28 29 30 31 32 33 34 35 36 37 38 39 40 41 42 43 44 45 46 47 48 49 50

000
ASUS43 KMKX 291321
RWRWI

WISCONSIN REGIONAL WEATHER ROUNDUP
NATIONAL WEATHER SERVICE MILWAUKEE/SULLIVAN WI
800 AM CDT FRI JUL 29 2016

NOTE: "FAIR" INDICATES FEW OR NO CLOUDS BELOW 12,000 FEET WITH NO
SIGNIFICANT WEATHER AND/OR OBSTRUCTIONS TO VISIBILITY.

WIZ001-002-006>008-014>016-023>028-291400-
NORTHWEST WISCONSIN

CITY           SKY/WX    TMP DP  RH WIND       PRES   REMARKS
SUPERIOR ARPT  PTSUNNY   56  56 100 CALM      30.12S FOG
ASHLAND        SUNNY     58  56  93 CALM      30.12S
HAYWARD        SUNNY     55  53  93 NE7       30.11S
SIREN          NOT AVBL
CUMBERLAND     SUNNY     59  52  77 NE7       30.10S
RICE LAKE      SUNNY     60  53  79 N8        30.11R
CHETEK         SUNNY     60  52  74 N3        30.09R
LADYSMITH      SUNNY     58  53  82 NE6       30.12R
EAU CLAIRE     SUNNY     63  55  75 NE7       30.06R
MENOMONIE      SUNNY     64  56  76 CALM      30.07S
NEW RICHMOND   SUNNY     62  54  75 NE9       30.08S
OSCEOLA        SUNNY     61  60  99 CALM      30.11S
$$

WIZ003>005-009-010-017-018-291400-
NORTH CENTRAL WISCONSIN

CITY           SKY/WX    TMP DP  RH WIND       PRES   REMARKS
MANITOWISH WTR SUNNY     60  56  89 NE7       30.11S
ARBOR VITAE    SUNNY     60  55  81 NE7       30.10S
WOODRUFF       SUNNY     60  55  81 NE7       30.10S
RHINELANDER    SUNNY     58  52  80 NE6       30.10R
EAGLE RIVER    SUNNY     58  56  92 CALM      30.10S
LAND O LAKES   SUNNY     58  53  86 NE5       30.12S
PHILLIPS       SUNNY     58  54  86 NE7       30.10R
TOMAHAWK       SUNNY     58  53  81 E3        30.10R
MEDFORD        SUNNY     58  54  87 NE6       30.08R
MERRILL        SUNNY     60  54  80 NE5       30.08S
$$

WIZ029-030-035-036-043>047-291400-
CENTRAL WISCONSIN

CITY           SKY/WX    TMP DP  RH WIND       PRES   REMARKS
WAUSAU         MOSUNNY   62  53  72 NE6       30.05R
MOSINEE        MOSUNNY   59  55  88 NE6       30.07R
MARSHFIELD     PTSUNNY   63  54  72 NE12      30.04S
STEVENS POINT  CLOUDY    59  54  85 NE8       30.05S
WAUPACA        CLOUDY    63  60  88 N3        30.03S
WAUTOMA        CLOUDY    60  58  92 NE6         N/A
WISC RAPIDS    CLOUDY    64  53  67 E8        30.05S
CAMP DOUGLAS   CLOUDY    62  56  82 NE6       30.03R
$$

WIZ011>013-019>022-031-037>040-048>050-291400-
NORTHEAST WISCONSIN

CITY           SKY/WX    TMP DP  RH WIND       PRES   REMARKS
ANTIGO         SUNNY     61  55  78 CALM      30.08R
SHAWANO        CLOUDY    62  56  82 NE9       30.06R
OCONTO         CLOUDY    60  60 100 N5        30.04S
STURGEON BAY   CLOUDY    67  63  87 E3          N/A
GREEN BAY      CLOUDY    63  63 100 N9        30.03S
MANITOWOC      CLOUDY    66  64  93 NE7       30.02R
APPLETON       NOT AVBL
CLINTONVILLE   CLOUDY    61  55  82 N6        30.05R
OSHKOSH        CLOUDY    66  63  90 NE13      30.00S
$$

WIZ032>034-041-042-053>061-291400-
SOUTHWEST WISCONSIN

CITY           SKY/WX    TMP DP  RH WIND       PRES   REMARKS
LA CROSSE      CLOUDY    66  58  75 N5        30.02R
SPARTA         CLOUDY    63  56  79 NE7       30.04R
VIROQUA        CLOUDY    62  58  87 NE7       30.03R
BOSCOBEL       CLOUDY    66  61  84 NE5       29.99R
PRAIRIE DU CHI CLOUDY    66  62  87 CALM      29.98R
PLATTEVILLE    CLOUDY    66  65  97 NE8       29.98R
$$

WIZ056-057-062-063-064-067-068-291400-
SOUTH CENTRAL WISCONSIN

CITY           SKY/WX    TMP DP  RH WIND       PRES   REMARKS
REEDSBURG      CLOUDY    60  60  98 NE7       30.02R
BARABOO/DELLS  CLOUDY    59  57  91 NE8       30.01R
LONE ROCK      CLOUDY    64  60  87 NE5       29.99S
MINERAL POINT  CLOUDY    64  64 100 NE8       29.97F
MADISON        LGT RAIN  64  63  96 NE8       29.98R FOG
MIDDLETON      CLOUDY    65  64  94 NE7       30.00R
WATERTOWN      CLOUDY    66  66 100 NE6       29.98R
MONROE         CLOUDY    64  63  94 NE8       29.96F
JANESVILLE     CLOUDY    70  66  88 NE6       29.95S
$$

WIZ051-052-058>065-066-070>072-291400-
SOUTHEAST WISCONSIN

CITY           SKY/WX    TMP DP  RH WIND       PRES   REMARKS
MILWAUKEE      CLOUDY    71  65  81 NE9       29.96S
WAUKESHA       CLOUDY    66  64  94 E9        29.98S
MILWAUKEE/TIMM CLOUDY    68  63  83 NE5       29.98S
RACINE         CLOUDY    73  66  78 E8        29.97S
BURLINGTON     MOSUNNY   70  66  86 NE6       29.95F
KENOSHA        MOSUNNY   74  68  81 NE10      29.95S
FOND DU LAC    CLOUDY    67  64  90 NE6       30.00S
SHEBOYGAN      CLOUDY    67  64  90 NE10      30.00R
WEST BEND      CLOUDY    66  63  88 E7        29.99S
JUNEAU         CLOUDY    64  62  94 NE7       30.01R
$$

LSZ147-162-291400-
LAKE SUPERIOR

STATION/POSITION TIME  TEMP    WIND        PRES    WAVE
                       AIR SEA DIR/SP/G            HT/PER
                 (UTC) (F)     (DEG/KT/KT) (MB)    (FT/S)
W MID LAKE BUOY  1250   62 61   20/  4/  6 1019.5R   0
DEVILS ISLAND    1300   63      10/  6/  6 1020.2R
SAXON HARBOR     1200   52     190/  4/  6 1019.6R
$$

LMZ867-665-643>646-291400-
LAKE MICHIGAN

STATION/POSITION TIME  TEMP    WIND        PRES    WAVE
                       AIR SEA DIR/SP/G            HT/PER
                 (UTC) (F)     (DEG/KT/KT) (MB)    (FT/S)
CHAMBERS ISLAND  1200   68      20/  8/ 12 1017.3R
N MID LAKE BUOY  1250   69 69  120/ 14/ 16 1016.6R   2/ 4
NORTHPORT PIER   1200   69      60/  6/  8 1017.3R
SISTER BAY       1236           CALM  /  3   N/A
ALGOMA LAKESHORE 1243           90/  9/ 11   N/A
KEWAUNEE LAKESHO 1200   64      50/  7/ 10 1016.1R
SHEBOYGAN LAKESH 1300   65      30/  7/  8 1016.0R
PORT WASHINGTON  1240   67      40/  7/ 10 1015.9R
ATWATER BUOY     1300   68 63   70/ 10/ 14 1016.3F
MILWAUKEE LAKESH 1310   66      40/  9/ 10   N/A
S MID LAKE BUOY  1250   71 75   90/ 17/ 21 1013.1R   3/ 5
KENOSHA   LAKESH 1300   72      60/ 12/ 12 1013.5F
$$

TC  - TEMPERATURE IN CELSIUS
VSB - VISIBILITY IN STATUTE MILES
WCI - WIND CHILL INDEX
HX  - HEAT INDEX




USA.gov is the U.S. government's official web portal to all federal, state and local government web resources and services.